Airfield :
LOGIN :

Register | Disclaimer

   EN    FR    IT 

 










Legend :    VFR   Marginal VFR   IFR   Intensive IFR   Very Intensive IFR
Visi :
Ceiling :
>= 8 km
>= 3000ft
5 to 8 km
1000 to 3000 ft
1500m to 5 km
500 to 1000 ft
800 to 1500m
200 to 500 ft
< 800m
< 200 ft
Symbols :   Thunderstorms  Fog  Heavy snow  Heavy precipitations  Wind > 20 kt
SIGMETs :     Misc.  Thunderstorms  Icing  Turbulence  Mountain Waves  Volcanic Ashes







- Airport Elevation : 388 ft
- IATA code : QYR
- Download approach charts


LFQB - Troyes Barberey

CURRENT METAR :
  • 112330Z AUTO 09003KT 1200 BR VV/// 00/00 Q1024

EXPIRED METARs :
  • 112300Z AUTO VRB03KT 0900 0800 FG VV/// 01/01 Q1025
  • 112230Z AUTO 10005KT 1000 0900 BCFG VV/// 01/01 Q1024
  • 112200Z AUTO VRB02KT 0550 FG VV/// 01/01 Q1025
  • 112130Z AUTO 06003KT 0900 FG VV/// 02/01 Q1025
  • 112100Z AUTO VRB02KT 1000 BR VV/// 02/01 Q1025

TAF N/A
No reported NOTAMs for that airfield.



MET'MAP, your aeronautical weather chart ! - Copyright ORBIFLY December 2007 - Disclaimer

ORBIFLY MET'MAP TEAM :

Programming & Development : Alexandra Zaïnal
Concept & Development : Baudouin d'Aumeries
Co-Development & Prog : Marc-Olivier Méhu
Technical & hardware support : Manuel Goepfert

Contact : metmap@orbifly.com




SOURCES & CREDITS :

   NOAA